GFSFLT2_850_temp_009.txt.gz
Temp
16 17 17 17 16 15 15 14 14 14 14 14 14 14 14 14 14 14 14 14 13 13 13 13 13 12 12 12 12 12 12 12
16 16 16 16 16 15 15 15 14 14 14 14 14 14 14 14 14 14 14 14 14 14 13 13 13 12 12 11 11 11 11 11
16 16 16 16 16 15 15 15 14 14 14 14 14 14 14 14 14 14 14 14 14 13 13 13 13 12 12 12 11 11 11 11
16 16 16 16 16 15 15 15 14 14 14 13 13 13 13 13 13 13 13 13 13 13 13 13 12 12 12 12 11 11 11 11
16 16 16 16 15 15 15 15 14 14 14 13 13 13 13 13 13 13 13 12 12 12 12 12 12 11 11 11 11 11 11 11
16 16 16 16 15 15 14 14 14 13 13 13 12 12 12 12 12 12 12 12 12 12 12 11 11 11 11 11 11 11 11 11
16 15 16 15 15 15 14 14 13 13 13 12 12 12 12 12 12 12 12 12 11 11 11 11 11 11 11 11 11 10 10 10
16 16 16 15 15 15 14 14 13 13 13 13 12 12 12 11 11 11 11 11 11 11 10 10 10 10 10 10 10 10 10 10
16 16 15 15 15 14 14 14 13 13 13 13 12 12 12 11 11 11 11 10 10 10 10 10 10 10 10 10 10 10 10 9
16 16 15 15 15 14 14 14 14 13 13 13 12 12 12 12 11 11 11 10 10 10 10 10 9 9 9 9 9 9 9 9
16 16 15 15 14 14 14 14 13 13 12 12 12 12 12 11 11 11 11 11 10 10 10 10 10 9 9 9 9 9 8 8
15 15 15 15 15 14 14 13 13 12 12 12 12 11 11 11 11 11 10 10 11 11 10 10 9 9 9 9 9 8 8 8
16 15 15 14 14 13 13 13 13 12 12 12 11 11 11 11 11 10 10 9 9 10 9 9 9 9 8 8 8 8 8 7
15 14 14 13 13 13 12 12 12 12 12 12 11 11 11 11 10 10 10 10 10 9 9 9 9 9 8 7 7 7 7 7
14 13 13 13 12 12 11 11 11 11 11 11 11 10 10 9 9 9 9 9 10 10 9 8 8 8 9 8 7 7 7 7
13 13 12 11 11 11 11 11 10 10 9 9 9 9 9 9 9 9 8 8 8 9 9 8 7 7 6 7 7 7 6 7
12 11 11 11 11 11 10 10 9 9 9 9 9 9 9 9 8 8 7 7 7 7 8 7 5 5 5 5 5 4 4 3
11 11 11 11 11 10 9 9 8 8 8 8 8 8 8 8 7 6 6 6 6 5 5 3 1 2 3 3 3 2 2 0
11 11 11 10 10 9 8 8 7 7 7 6 6 7 6 6 5 5 5 5 4 2 1 0 -0 -1 -1 -1 -1 -1 -1 -2
10 10 10 9 9 8 7 6 6 6 5 5 6 6 5 4 4 3 2 1 0 -0 -1 -1 -1 -1 -1 -1 -1 -2 -2 -2

GFSFLT2_850_temp_012.txt.gz
Temp
16 16 17 16 16 15 15 14 14 14 14 14 14 14 14 14 14 13 13 13 13 13 13 13 13 13 13 12 12 12 12 11
16 16 16 16 15 15 15 15 14 14 14 14 14 14 14 14 13 14 13 14 13 13 13 13 12 12 12 12 11 11 11 11
16 15 16 16 16 15 15 15 14 14 14 14 14 12 13 13 13 13 13 13 13 13 13 13 12 13 12 12 12 10 10 11
16 16 16 16 16 15 14 14 13 13 13 14 13 13 13 13 13 13 13 13 13 13 13 13 12 10 10 11 10 12 10 10
15 16 16 16 14 14 13 13 13 13 14 14 13 13 12 11 11 10 11 11 11 11 11 10 11 11 10 10 10 11 10 10
15 15 16 16 14 14 13 13 13 12 12 13 12 11 11 11 11 10 10 10 10 10 10 11 11 11 11 11 11 11 10 10
15 14 15 15 15 14 14 14 12 12 12 12 13 11 11 11 11 10 10 10 10 9 9 9 9 10 10 9 9 9 10 9
15 15 16 16 15 15 15 14 13 13 12 12 13 12 11 11 10 10 10 10 10 9 9 9 9 9 9 10 9 9 8 9
15 16 15 15 15 15 15 14 14 12 12 13 12 12 11 12 10 10 10 10 10 9 9 9 9 9 9 9 9 9 8 8
15 16 15 15 15 14 14 13 13 13 13 12 12 12 12 12 10 10 10 10 9 9 9 9 9 9 9 9 9 8 8 7
15 15 15 15 15 14 14 14 13 12 13 12 12 12 11 11 11 11 10 10 10 9 9 9 9 9 9 9 9 8 8 8
14 14 14 15 14 14 13 13 13 13 12 12 12 12 11 11 11 11 10 9 9 9 9 9 9 9 9 10 9 8 8 8
13 13 15 14 13 12 12 12 12 11 11 11 11 11 11 11 10 9 9 8 8 9 8 8 8 8 8 9 9 8 7 8
14 14 14 13 13 13 12 12 11 11 10 11 11 11 11 10 9 9 8 8 7 7 7 7 8 8 8 8 9 10 9 7
14 13 13 12 12 10 10 10 10 10 10 9 10 10 10 9 8 8 8 7 7 7 7 7 8 8 8 7 9 10 10 10
12 12 11 11 11 10 11 9 9 8 8 7 8 8 8 8 8 9 8 7 6 6 6 6 6 7 7 8 7 7 8 10
10 10 10 11 10 10 8 7 7 7 6 6 6 6 6 6 6 8 7 6 6 6 5 4 4 5 5 6 6 5 5 5
11 10 9 10 10 9 9 7 6 6 6 5 6 5 5 5 5 6 5 4 3 3 2 2 1 2 2 2 2 2 3 3
11 10 8 8 7 7 7 6 5 5 5 4 4 4 4 3 4 2 2 1 1 0 1 1 -0 -0 -1 -0 -1 -1 -1 -1
8 8 8 8 7 6 7 6 5 4 4 3 3 3 2 2 1 1 0 0 0 -0 0 -1 -1 -1 -2 -2 -2 -2 -2 -3

GFSFLT2_850_temp_015.txt.gz
Temp
16 16 17 16 16 16 15 15 15 14 14 14 14 14 14 14 14 14 14 14 14 14 13 13 13 13 13 13 13 13 13 13
16 16 16 15 15 15 15 15 15 14 14 14 14 14 13 13 13 13 13 13 13 13 13 13 13 13 13 13 13 13 12 13
17 16 15 15 15 15 15 15 15 14 14 14 13 13 12 12 12 13 13 13 13 13 12 12 12 12 12 12 12 12 12 13
17 16 15 15 15 14 14 14 14 13 13 13 13 12 12 12 12 12 12 12 12 11 11 12 12 12 12 11 12 11 11 12
17 15 15 15 15 15 16 15 14 14 13 12 12 12 12 12 12 12 12 11 11 11 11 11 10 10 10 10 11 11 12 12
17 16 15 16 16 16 15 15 15 14 14 12 12 13 12 12 12 12 12 12 11 11 11 11 10 10 10 9 10 10 11 11
18 16 15 15 15 15 14 14 14 14 13 13 12 12 12 12 12 12 12 12 12 11 11 11 11 10 10 10 10 10 9 10
18 17 15 15 15 14 14 14 14 13 13 13 13 12 11 11 11 12 12 12 12 11 11 10 10 10 10 10 9 9 10 10
18 17 16 14 14 14 14 14 13 14 13 12 12 12 11 11 11 11 11 11 11 11 11 11 10 10 10 10 10 9 9 9
18 17 15 14 15 14 14 14 13 13 13 13 12 11 11 12 11 11 11 11 11 11 11 11 11 11 11 10 10 10 10 9
18 16 15 15 14 14 13 13 13 14 13 13 12 11 11 11 12 11 10 10 10 10 10 10 10 11 11 11 11 10 10 10
17 15 15 14 14 13 13 13 13 13 13 13 11 11 10 10 10 10 10 9 10 10 10 9 10 10 10 11 11 11 10 10
16 14 13 14 14 13 14 13 13 13 12 11 10 10 10 9 9 9 9 9 9 9 9 9 9 9 9 9 10 10 10 10
14 13 12 13 13 12 12 12 12 11 11 11 10 9 9 9 8 8 8 8 8 8 8 8 8 8 9 9 9 10 10 10
13 12 11 11 12 12 12 12 12 12 11 10 9 8 8 7 7 7 7 6 7 7 7 7 7 8 8 8 9 10 10 11
12 11 11 10 11 10 11 10 10 10 9 9 8 7 7 7 7 6 6 5 5 5 6 6 6 6 7 7 8 8 7 8
11 11 11 10 9 10 9 9 8 8 8 8 7 7 6 6 6 5 5 4 4 4 4 4 4 4 5 5 5 6 6 5
11 11 11 10 9 8 8 7 7 7 7 6 6 5 5 5 4 4 3 3 3 3 2 2 1 2 2 1 1 1 2 1
11 11 11 10 9 8 8 7 6 6 6 5 4 4 4 4 3 3 3 2 2 1 1 0 -0 0 -0 -0 -0 -1 -1 -1
10 10 10 10 9 8 7 6 5 5 4 3 2 2 2 2 2 2 1 1 0 -0 -0 -0 -1 -1 -1 -1 -2 -2 -3 -3

GFSFLT2_850_temp_021.txt.gz
Temp
17 17 16 16 16 16 16 15 15 15 15 14 13 13 13 13 13 13 13 13 13 13 13 13 13 13 13 14 14 14 13 12
16 16 15 15 15 16 16 15 15 14 14 13 13 13 13 13 12 12 12 12 12 12 12 12 12 12 12 12 12 12 12 12
16 16 15 15 15 15 15 15 14 14 14 13 13 13 13 12 12 12 12 12 12 12 12 11 11 11 11 12 12 12 12 11
16 16 16 15 15 15 15 14 14 14 14 14 13 13 12 12 12 12 12 12 12 12 12 11 11 11 11 11 12 12 12 11
17 17 16 15 16 15 15 14 14 14 13 13 13 13 13 13 13 13 12 12 12 12 11 11 11 11 11 11 11 11 11 11
17 17 17 16 15 15 15 14 14 14 14 14 14 14 13 14 13 13 13 12 12 12 12 12 11 11 11 11 11 11 11 11
18 17 18 17 16 15 15 15 14 14 14 14 14 14 14 14 14 13 13 12 12 12 12 11 11 11 11 11 11 11 10 11
18 16 15 16 16 16 16 15 14 14 14 14 14 14 14 13 13 13 12 12 11 11 11 11 11 11 11 10 10 10 10 10
16 17 14 16 14 16 15 14 14 14 14 14 13 13 13 12 12 12 12 12 12 12 12 11 11 11 10 10 10 10 10 10
17 16 16 15 14 14 14 14 14 14 13 13 13 12 12 11 12 12 11 11 11 11 10 10 9 9 9 10 10 10 10 10
17 16 15 13 14 14 14 14 14 14 13 13 13 12 12 12 12 11 11 10 10 9 9 9 9 9 9 9 9 9 10 10
17 16 14 14 14 14 14 13 13 13 13 12 12 12 12 11 11 10 10 9 9 9 8 8 8 8 8 8 8 8 8 8
17 16 16 14 14 14 13 13 13 13 12 11 11 11 11 11 9 8 8 8 7 7 7 7 7 7 7 7 7 7 7 8
16 15 14 13 13 13 13 13 12 11 11 10 9 9 9 8 8 8 8 7 7 6 6 6 6 5 5 5 5 6 7 7
14 13 13 13 13 12 12 12 11 11 11 10 10 9 8 8 8 7 6 6 5 5 5 4 4 4 4 4 3 4 3 5
12 12 12 12 11 11 11 10 9 9 8 8 8 8 7 7 6 6 6 4 4 4 3 3 3 3 3 3 3 1 -0 1
12 11 11 11 10 10 9 9 8 7 7 7 6 6 5 5 4 3 3 2 2 2 2 3 2 2 2 1 1 1 1 -0
11 11 11 10 9 9 9 8 7 7 7 6 6 5 4 3 2 1 1 1 1 1 1 1 1 0 -0 -0 -1 -1 -2 -2
11 11 10 10 9 9 8 7 7 6 6 5 4 3 2 2 1 1 0 0 0 -0 -0 -0 -1 -1 -1 -1 -1 -2 -2 -3
11 11 10 9 9 8 7 7 5 5 4 4 3 2 1 1 1 -0 -1 -1 -1 -1 -2 -2 -2 -2 -2 -2 -2 -3 -3 -3

GFSFLT2_850_temp_024.txt.gz
Temp
16 16 16 16 16 16 16 15 15 15 15 15 14 14 14 14 13 13 13 13 13 12 12 12 12 12 12 12 12 12 12 12
16 16 16 16 16 16 16 15 15 15 14 14 14 14 13 13 13 13 12 12 12 12 12 12 12 12 12 12 12 12 12 12
16 16 15 15 15 15 15 14 14 14 14 14 14 14 13 13 13 13 12 12 12 12 12 12 12 11 11 12 11 11 11 11
16 16 15 15 15 15 14 14 14 14 14 14 14 14 13 13 13 13 13 13 12 12 12 12 12 12 11 11 11 11 11 11
16 16 16 16 15 15 14 14 14 14 14 14 14 14 13 13 13 13 13 12 12 12 12 12 11 11 11 11 11 11 11 11
16 17 17 16 15 15 14 14 14 14 14 13 14 14 13 13 13 13 12 12 12 12 12 11 11 11 11 11 10 10 10 11
16 17 15 16 16 15 15 14 14 14 14 14 14 14 14 13 12 12 12 12 11 11 11 11 11 11 11 10 10 10 10 10
17 17 17 16 15 15 15 14 14 14 14 14 13 13 13 13 12 12 12 11 11 11 11 11 11 10 11 10 10 10 10 10
17 17 16 16 15 15 15 14 14 14 13 13 13 13 12 13 12 12 12 12 11 11 11 11 10 10 10 10 9 9 10 10
17 17 16 16 15 15 14 14 14 13 13 13 13 13 13 12 11 11 11 11 11 11 10 10 9 9 9 9 9 9 9 9
16 16 16 16 15 14 14 14 13 13 13 12 12 11 11 11 11 11 11 10 10 9 9 9 9 9 8 8 9 9 9 9
16 15 15 14 13 13 13 13 13 12 12 11 11 11 10 10 9 9 9 9 8 8 8 7 7 7 7 7 8 8 9 8
14 12 12 12 13 13 12 12 12 12 11 10 10 10 9 9 9 8 8 7 7 7 6 6 6 6 6 5 6 6 6 6
12 12 13 13 13 13 13 12 11 11 10 10 10 9 9 8 8 7 7 6 6 6 6 5 5 4 3 3 3 3 4 4
13 12 12 12 12 11 11 11 11 11 11 10 10 9 8 7 6 5 6 5 5 4 3 3 2 2 2 2 1 1 0 1
14 13 12 12 11 11 11 11 10 10 9 8 7 7 6 5 5 5 4 3 2 1 1 1 1 1 2 1 1 0 -1 -0
13 13 12 12 11 10 9 9 9 8 7 7 6 6 5 5 4 2 2 1 1 0 -0 0 -0 -1 -1 -1 -1 -1 -0 -1
11 11 11 11 10 10 10 9 8 7 7 6 6 5 4 3 2 2 1 0 -1 -1 -1 -1 -1 -1 -1 -1 -2 -2 -3 -3
11 11 10 9 9 9 8 8 7 6 5 5 5 4 3 2 1 1 1 -1 -1 -2 -2 -2 -2 -2 -2 -2 -3 -3 -3 -3
10 10 10 9 9 8 8 7 7 6 5 5 4 3 2 2 1 1 0 -1 -1 -2 -2 -2 -3 -3 -3 -3 -3 -3 -3 -4

GFSFLT2_850_temp_030.txt.gz
Temp
16 16 16 16 16 16 16 16 15 15 14 14 14 14 14 14 14 13 13 13 13 13 12 12 12 12 12 11 11 11 12 12
16 16 17 16 16 15 15 15 15 14 14 14 14 14 14 14 13 13 13 12 12 12 12 12 12 12 12 12 11 11 11 11
16 16 16 16 16 15 15 15 15 14 14 14 14 13 13 13 13 12 12 12 12 11 11 11 11 11 12 12 12 12 11 11
16 15 16 15 15 15 15 15 15 14 14 14 14 13 13 13 12 12 12 12 11 11 11 11 11 11 11 11 11 11 11 12
16 15 15 15 15 15 15 15 14 14 14 14 14 13 13 13 12 12 12 12 12 11 11 11 11 11 11 11 11 11 11 11
16 15 15 15 15 15 15 15 14 14 14 13 13 13 13 13 12 12 12 11 11 11 11 11 11 10 10 10 10 10 10 10
16 15 15 15 14 14 14 14 14 13 13 13 13 13 12 12 12 12 11 11 11 11 10 10 10 10 10 10 10 10 9 9
15 15 15 14 14 14 14 13 13 13 12 12 12 12 12 11 11 11 10 10 10 10 10 9 9 9 9 9 9 9 9 9
15 15 14 14 14 14 13 13 13 13 12 12 12 11 11 11 10 10 10 10 10 9 9 9 9 9 9 9 9 9 8 8
15 14 14 14 13 12 13 13 13 13 13 12 11 11 11 11 10 10 9 9 9 9 8 8 8 8 8 8 8 8 7 7
14 13 12 12 12 12 12 12 12 12 12 12 11 11 11 10 10 9 9 9 8 8 8 7 7 7 7 7 7 7 7 6
13 12 12 11 11 11 12 12 12 12 11 11 10 10 10 10 9 9 8 8 8 7 7 7 6 6 6 5 5 5 5 5
12 12 10 11 10 11 12 12 11 11 10 10 10 10 9 9 8 7 7 6 6 6 6 6 5 5 4 5 5 4 3 4
13 12 12 11 12 12 12 12 12 11 11 10 10 9 8 8 7 6 6 6 5 5 5 4 3 3 2 1 1 1 2 2
13 13 13 13 12 12 12 11 11 11 10 9 9 7 6 6 6 5 5 4 4 4 3 3 2 2 1 -0 -1 -1 -2 -1
13 12 12 12 11 11 11 10 10 10 9 8 7 6 6 5 5 5 4 4 3 3 2 1 -1 -1 -1 -2 -2 -3 -3 -3
12 12 11 11 10 10 10 9 9 8 7 6 6 5 5 4 4 3 3 3 2 2 1 0 -1 -1 -2 -2 -2 -3 -3 -3
11 11 10 10 10 9 9 8 7 6 6 5 5 5 4 4 3 3 2 2 2 1 1 -0 -2 -2 -3 -3 -3 -3 -4 -4
10 10 10 9 9 8 7 7 6 6 6 5 4 4 3 3 2 2 2 1 0 -1 -1 -1 -2 -3 -3 -3 -3 -3 -4 -4
10 9 9 9 8 7 6 6 6 5 4 4 3 3 3 2 2 2 1 0 -1 -2 -2 -2 -2 -3 -3 -4 -4 -4 -4 -5

GFSFLT2_850_temp_033.txt.gz
Temp
16 16 15 15 15 15 15 15 15 14 14 14 14 14 13 13 13 13 13 13 13 13 12 12 12 12 13 13 13 13 13 12
16 16 15 15 15 15 15 15 14 14 14 14 14 13 13 13 13 13 13 12 12 12 12 12 12 12 12 12 12 12 12 12
16 15 15 15 15 15 15 14 14 14 14 14 13 13 13 13 13 13 12 12 12 12 12 11 11 11 11 11 11 11 11 11
15 15 15 15 15 15 14 14 14 14 14 14 13 13 13 13 12 12 12 12 11 11 11 11 11 11 11 11 11 11 11 11
15 15 15 15 14 14 14 14 13 13 13 13 13 13 12 12 12 12 12 12 11 11 11 11 11 11 11 11 10 10 10 10
15 15 14 14 14 14 13 13 13 13 12 12 12 12 12 12 12 11 12 12 11 11 11 11 10 10 10 10 10 10 10 10
15 14 14 14 13 13 13 13 13 12 12 12 12 12 12 12 11 11 11 11 11 11 10 10 10 10 9 9 10 10 10 10
15 14 14 14 13 13 13 12 13 13 13 13 12 12 11 11 11 11 11 10 10 10 10 9 9 9 9 9 9 9 9 9
15 14 14 13 13 12 13 13 13 13 13 13 12 11 11 11 11 10 10 9 9 9 8 8 8 8 8 8 8 8 8 8
14 13 13 13 12 12 12 12 12 13 12 12 11 11 10 10 10 9 9 8 8 8 8 8 8 8 7 7 8 7 7 7
13 12 12 12 11 11 11 11 10 11 12 11 11 10 10 10 9 8 8 8 7 7 7 7 6 6 6 6 6 6 7 6
13 12 12 12 11 10 10 10 11 11 11 11 10 10 9 9 8 8 7 7 7 6 6 6 5 5 5 5 5 5 5 4
12 12 12 11 12 11 11 11 11 11 11 10 10 9 8 7 7 7 6 6 6 5 5 5 5 5 4 2 2 3 3 3
12 12 12 11 11 11 11 11 11 10 10 9 8 7 7 7 7 6 5 5 4 4 4 4 3 3 2 0 2 2 0 1
12 12 11 11 11 11 11 11 10 10 10 9 7 7 7 6 6 5 4 4 3 3 3 2 2 2 1 -1 0 1 -2 -1
12 12 12 11 11 11 10 10 10 9 8 7 7 6 6 5 4 4 4 3 3 2 2 1 1 -0 -0 -2 -3 -3 -3 -2
12 12 11 11 10 10 9 9 8 8 7 6 6 5 4 4 4 3 3 2 2 1 1 -1 -1 -2 -3 -3 -3 -3 -3 -3
11 11 11 10 10 9 8 8 7 6 6 5 5 4 4 3 3 2 2 2 1 -0 -1 -2 -2 -2 -3 -3 -4 -4 -4 -4
11 10 10 10 9 8 7 7 6 6 5 5 4 3 3 2 2 2 1 1 0 -0 -1 -2 -2 -2 -3 -3 -3 -4 -4 -5
10 10 10 9 8 7 6 6 6 5 4 4 3 3 2 2 2 1 1 1 0 -1 -2 -2 -3 -3 -3 -3 -4 -4 -4 -5